Regional Weather Roundup
Issued by NWS Cleveland, OH

Home | Current Version | Previous Version | Graphics & Text | Print | Product List | Glossary On
Versions: 1 2 3 4 5 6 7 8 9 10 11 12 13 14 15 16 17 18 19 20 21 22 23 24 25 26 27 28 29 30 31 32 33 34 35 36 37 38 39 40 41 42 43 44 45 46 47 48 49 50
000
ASUS41 KCLE 011910
RWRCLE
OHIO REGIONAL WEATHER ROUNDUP
NATIONAL WEATHER SERVICE WILMINGTON, OH
300 PM EDT SUN MAY 01 2016

NOTE: "FAIR" INDICATES FEW OR NO CLOUDS BELOW 12,000 FEET WITH NO
SIGNIFICANT WEATHER AND/OR OBSTRUCTIONS TO VISIBILITY.

OHZ001>008-015>018-024>027-034-035-043-044-012000-
   NORTHWEST OHIO

CITY           SKY/WX    TMP DP  RH WIND       PRES   REMARKS
DEFIANCE       CLOUDY    58  51  78 NE6       29.97R
FINDLAY        CLOUDY    64  56  75 NW8       29.93S
TOLEDO EXPRESS CLOUDY    54  51  90 NE6       29.97R
TOLEDO EXEC    CLOUDY    55  49  80 NE6       29.98R
LIMA           FAIR      69  63  81 N8        29.93S
$$

OHZ009>014-019>023-028>033-038-089-012000-
   NORTHEAST OHIO

CITY           SKY/WX    TMP DP  RH WIND       PRES   REMARKS
CLE-HOPKINS    CLOUDY    56  51  84 N10       29.97S
CLE-LAKEFRONT  CLOUDY    50  48  93 NE7       29.96S FOG
CUY CO. ARPT   CLOUDY    54  52  94 N8        29.96S FOG
LORAIN-ELYRIA  CLOUDY    55  50  83 N7        29.95F
ASHTABULA      CLOUDY    54  53  97 N8        29.96R
AKRON-CANTON   PTSUNNY   73  57  57 W13G18    29.92F
WOOSTER        FAIR      69  59  70 NW10      29.93S
MANSFIELD      FAIR      71  59  65 W7        29.92F
YOUNGSTOWN     PTSUNNY   71  57  61 SW9       29.91F
$$

OHZ042-051>053-060>062-070>072-077>081-012000-
  SOUTHWEST OHIO

CITY           SKY/WX    TMP DP  RH WIND       PRES   REMARKS
CINC-COVINGTON FAIR      77  61  57 SW8       29.93S
CINC-LUNKEN    PTSUNNY   76  60  57 SW3       29.92S
HAMILTON       PTSUNNY   78  57  48 CALM      29.92F
DAYTON         FAIR      72  56  57 SW5       29.93F
WRIGHT-PAT AFB FAIR      75  57  52 SW9       29.92S HAZE
DAYTON GENERAL FAIR      75  55  49 VRB7      29.92S
WILMINGTON     PTSUNNY   75  59  57 SW9       29.93R
$$

OHZ036-037-039>041-045>050-054>059-063>069-073>076-082>088-012000-
  CENTRAL AND SOUTHEAST OHIO

CITY           SKY/WX    TMP DP  RH WIND       PRES   REMARKS
COLUMBUS       FAIR      73  58  59 SW10      29.91F
OSU AIRPORT    FAIR      76  60  57 SW8       29.90F
BOLTON FIELD   MOSUNNY   73  63  68 S10       29.92F
RICKENBACK AFB FAIR      72  62  71 W6        29.92S
NEWARK         FAIR      76  60  57 SW8       29.91F
MARION         FAIR      69  59  70 NW3       29.92F
LANCASTER      PTSUNNY   73  60  63 VRB6      29.92F
ZANESVILLE     PTSUNNY   73  60  63 VRB3      29.93S
NEW PHILLY     FAIR      67  59  75 SW5       29.92F
$$



USA.gov is the U.S. government's official web portal to all federal, state and local government web resources and services.